Location: Demmingen
(48.6757°N, 10.4375°E)
Time: 23:14:46
(UTC+00:00)

Cosmos 1745 Rocket - Pass Details

Date: 14 August 2024
Orbit: 951 x 998 km, 83.0° (Epoch: 08 September)

Event Time Altitude Azimuth Distance (km) Brightness Sun altitude
Rises 00:45:50 0° 359° (N) 3,640 8.1 -24.4°
Reaches altitude 10° 00:49:00 10° 14° (NNE) 2,693 7.4 -24.2°
Maximum altitude 00:53:36 22° 64° (ENE) 1,980 6.1 -23.9°
Drops below altitude 10° 00:58:13 10° 113° (ESE) 2,695 6.3 -23.6°
Sets 01:01:22 0° 128° (SE) 3,644 6.9 -23.4°
